CZ-4 DEB, 28071

Orbit data source: Space-Track

CZ-4 DEB, 28071 is space debris in SSO originally from a launch on Thu, 14 Oct 1999 UTC launched from the Taiyaun Space Center, China (TSC). Debris objects in space refer to the collection of defunct objects orbiting the Earth. Examples of debris include non-operational satellites, rocket bodies, and fragments generated from explosions, collisions, or faulty payload assembly.

Loading next visibility...
Identifier
28071, 1999-057NB
Orbit
SSO
Country
Flag of CNCN / PRC
Related business
Manufacturer
Unknown
Mission
Spacecraft
Bus & Motor
Unknown
Mass
Unknown
Launch date (UTC)
1999-10-14 (26 years ago)
Launch vehicle
Unknown
Launch site
Taiyaun Space Center, China (TSC)
Object type
Payload
Rocket body
Debris
Shape & HBR
Unknown shape, 0.1 m
Radar Cross Section
Small (<0.1 m²)

Expand to show TLE details & history
Last TLE update: 4 days ago

TLE from 4 days ago
0 CZ-4 DEB
1 28071U 99057NB  25294.05658016  .00000352  00000-0  13306-3 0  9997
2 28071  98.5953 221.3783 0105584 238.8901 135.5825 14.34353778212288
Epoch: 2025-10-21T01:21Z
TLE epoch observation values (Epoch: 2025-10-21T01:21:28.525Z)
Latitude
15.11103°
Longitude
168.9326°
Altitude
833.808 km
Speed
7.409 km/s
True Right ascension
14h 36m 12s
True Declination
15° 01' 32"
Sunlit
Object was in daylight at epoch
Visualization orbit readout
Latitude
Unknown
Longitude
Unknown
Altitude
Unknown
Speed
Unknown
Apparent Right ascension
Unknown
Apparent Declination
Unknown
Sunlit
N/A
Visualization observer readout
Local Sidereal Time
10:36:18
Azimuth
Unknown
Elevation
Unknown
Doppler factor
Unknown
Orbital elements
Apogee altitude
849.867 km
Perigee altitude
698.829 km
Semi-major axis
7,152.485 km
Eccentricity
0.01056
Inclination
98.5953°
RAAN
221.3783°
Arg. of periapsis
238.8901°
True anomaly
136.42135°
Mean anomaly
135.5825°
Eccentric anomaly
136.00271°
Mean motion
3.58804 °/min
Orbital period
100.33 mins
BSTAR
0.00013306
Loading maneuver chart data...
Computing Atmospheric mass density...

Documentation

Showing up to 5 results
|